WAT5852 KDLH-CYYZ

Flight info

Callsign WAT5852
Flight time 1h 24m
Altitude 37000
Route SNARG DCT GRB DCT YZEMN NUBER6
Aircraft B738/M-SDE2E3FGHIRWXY/LB1

Departure

Time 2026-05-08 01:04
Airport Duluth International Airport (KDLH)

Arrival

Time 2026-05-08 02:29
Airport Toronto Pearson International Airport (CYYZ)
Time Latitude Longitude Altitude Speed Heading
2026-05-08 00:54 46.83967 -92.18953 1427 ft 0 kts 274°
2026-05-08 00:58 46.83969 -92.18961 1428 ft 4 kts 292°
2026-05-08 00:58 46.83976 -92.18970 1428 ft 4 kts 334°
2026-05-08 01:02 46.84018 -92.19040 1427 ft 11 kts 313°
2026-05-08 01:03 46.84083 -92.19096 1428 ft 11 kts 347°
2026-05-08 01:03 46.84147 -92.19121 1428 ft 8 kts 329°
2026-05-08 01:03 46.84171 -92.19204 1428 ft 23 kts 275°
2026-05-08 01:03 46.84189 -92.19855 1428 ft 104 kts 272°
2026-05-08 01:04 46.84219 -92.21250 1502 ft 163 kts 272°
2026-05-08 01:04 46.84216 -92.22943 2300 ft 173 kts 267°
2026-05-08 01:04 46.83917 -92.24674 3198 ft 185 kts 244°
2026-05-08 01:04 46.82987 -92.26108 3639 ft 213 kts 212°
2026-05-08 01:05 46.81430 -92.26613 3863 ft 249 kts 180°
2026-05-08 01:05 46.79718 -92.25759 4320 ft 274 kts 147°
2026-05-08 01:05 46.78254 -92.23911 5230 ft 281 kts 136°
2026-05-08 01:05 46.76901 -92.21840 6229 ft 284 kts 134°
2026-05-08 01:06 46.75555 -92.19698 7090 ft 290 kts 134°
2026-05-08 01:06 46.74175 -92.17505 7934 ft 296 kts 135°
2026-05-08 01:06 46.72763 -92.15281 8768 ft 303 kts 135°
2026-05-08 01:06 46.71309 -92.13013 9646 ft 309 kts 136°
2026-05-08 01:07 46.69819 -92.10710 10329 ft 320 kts 136°
2026-05-08 01:07 46.68227 -92.08268 10551 ft 346 kts 135°
2026-05-08 01:07 46.66506 -92.05642 10791 ft 370 kts 135°
2026-05-08 01:07 46.64696 -92.02886 11308 ft 382 kts 135°
2026-05-08 01:08 46.62841 -92.00064 12086 ft 387 kts 134°
2026-05-08 01:08 46.60969 -91.97221 12899 ft 391 kts 133°
2026-05-08 01:08 46.59070 -91.94342 13687 ft 397 kts 133°
2026-05-08 01:08 46.57146 -91.91431 14362 ft 402 kts 133°
2026-05-08 01:09 46.55200 -91.88493 15074 ft 405 kts 133°
2026-05-08 01:09 46.53234 -91.85530 15791 ft 410 kts 133°
2026-05-08 01:09 46.51244 -91.82534 16479 ft 414 kts 133°
2026-05-08 01:09 46.49234 -91.79512 17159 ft 419 kts 133°
2026-05-08 01:10 46.47227 -91.76498 17823 ft 423 kts 133°
2026-05-08 01:10 46.45171 -91.73415 18448 ft 427 kts 133°
2026-05-08 01:10 46.43093 -91.70302 19023 ft 431 kts 133°
2026-05-08 01:10 46.40967 -91.67121 19607 ft 435 kts 133°
2026-05-08 01:11 46.38879 -91.64001 20142 ft 439 kts 133°
2026-05-08 01:11 46.36741 -91.60809 20708 ft 443 kts 133°
2026-05-08 01:11 46.34582 -91.57591 21153 ft 450 kts 133°
2026-05-08 01:11 46.32388 -91.54324 21649 ft 455 kts 133°
2026-05-08 01:12 46.30176 -91.51034 22225 ft 457 kts 133°
2026-05-08 01:12 46.27952 -91.47730 22787 ft 460 kts 133°
2026-05-08 01:12 46.25708 -91.44402 23298 ft 464 kts 133°
2026-05-08 01:12 46.23443 -91.41045 23731 ft 468 kts 133°
2026-05-08 01:13 46.21165 -91.37674 24167 ft 471 kts 133°
2026-05-08 01:13 46.18870 -91.34283 24609 ft 473 kts 133°
2026-05-08 01:13 46.16565 -91.30881 25031 ft 476 kts 133°
2026-05-08 01:13 46.14245 -91.27462 25444 ft 478 kts 134°
2026-05-08 01:14 46.11908 -91.24023 25855 ft 480 kts 134°
2026-05-08 01:14 46.09563 -91.20575 26249 ft 483 kts 134°
2026-05-08 01:14 46.07200 -91.17107 26618 ft 487 kts 134°
2026-05-08 01:14 46.04815 -91.13612 26898 ft 492 kts 134°
2026-05-08 01:15 46.02407 -91.10086 27285 ft 494 kts 134°
2026-05-08 01:15 45.99997 -91.06560 27693 ft 496 kts 134°
2026-05-08 01:15 45.97626 -91.02934 28069 ft 497 kts 129°
2026-05-08 01:15 45.95589 -90.98991 28401 ft 499 kts 123°
2026-05-08 01:16 45.93636 -90.94858 28725 ft 501 kts 122°
2026-05-08 01:16 45.91697 -90.90670 29051 ft 504 kts 122°
2026-05-08 01:16 45.89748 -90.86468 29369 ft 506 kts 122°
2026-05-08 01:16 45.87779 -90.82267 29672 ft 508 kts 122°
2026-05-08 01:17 45.85786 -90.78063 30011 ft 510 kts 123°
2026-05-08 01:17 45.83773 -90.73854 30250 ft 513 kts 123°
2026-05-08 01:17 45.81745 -90.69645 30539 ft 513 kts 123°
2026-05-08 01:17 45.79704 -90.65427 30887 ft 513 kts 123°
2026-05-08 01:18 45.77671 -90.61234 31229 ft 513 kts 123°
2026-05-08 01:18 45.75628 -90.57026 31465 ft 514 kts 124°
2026-05-08 01:18 45.73584 -90.52819 31710 ft 516 kts 124°
2026-05-08 01:18 45.71562 -90.48662 32010 ft 516 kts 124°
2026-05-08 01:19 45.69512 -90.44450 32387 ft 516 kts 124°
2026-05-08 01:19 45.67458 -90.40237 32702 ft 516 kts 124°
2026-05-08 01:19 45.65403 -90.36026 33006 ft 517 kts 124°
2026-05-08 01:19 45.63342 -90.31809 33290 ft 518 kts 124°
2026-05-08 01:20 45.61280 -90.27598 33610 ft 517 kts 124°
2026-05-08 01:20 45.59217 -90.23391 33926 ft 517 kts 124°
2026-05-08 01:20 45.57164 -90.19209 34139 ft 518 kts 124°
2026-05-08 01:20 45.55189 -90.15194 34274 ft 520 kts 124°
2026-05-08 01:21 45.53106 -90.10964 34491 ft 521 kts 124°
2026-05-08 01:21 45.51026 -90.06747 34792 ft 519 kts 125°
2026-05-08 01:21 45.48950 -90.02545 35099 ft 517 kts 125°
2026-05-08 01:21 45.46880 -89.98360 35355 ft 517 kts 125°
2026-05-08 01:22 45.44806 -89.94173 35578 ft 517 kts 125°
2026-05-08 01:22 45.42728 -89.89985 35824 ft 517 kts 125°
2026-05-08 01:22 45.40654 -89.85811 36093 ft 515 kts 125°
2026-05-08 01:22 45.38588 -89.81659 36365 ft 514 kts 125°
2026-05-08 01:23 45.36543 -89.77557 36532 ft 515 kts 125°
2026-05-08 01:23 45.34468 -89.73398 36696 ft 516 kts 126°
2026-05-08 01:23 45.32385 -89.69231 36917 ft 517 kts 126°
2026-05-08 01:24 45.28187 -89.60849 36925 ft 524 kts 126°
2026-05-08 01:24 45.24662 -89.53829 36928 ft 528 kts 126°
2026-05-08 01:25 45.19661 -89.43898 36924 ft 530 kts 126°
2026-05-08 01:25 45.16087 -89.36824 36898 ft 531 kts 126°
2026-05-08 01:26 45.11777 -89.28316 36894 ft 532 kts 126°
2026-05-08 01:26 45.07458 -89.19815 36916 ft 532 kts 126°
2026-05-08 01:27 45.03134 -89.11329 36900 ft 531 kts 126°
2026-05-08 01:27 44.98812 -89.02874 36894 ft 530 kts 127°
2026-05-08 01:28 44.94496 -88.94453 36920 ft 529 kts 127°
2026-05-08 01:28 44.90177 -88.86053 36923 ft 528 kts 127°
2026-05-08 01:29 44.85859 -88.77681 36921 ft 528 kts 127°
2026-05-08 01:29 44.81540 -88.69327 36919 ft 527 kts 127°
2026-05-08 01:30 44.77243 -88.61044 36915 ft 527 kts 127°
2026-05-08 01:30 44.72917 -88.52728 36916 ft 526 kts 127°
2026-05-08 01:31 44.68587 -88.44431 36940 ft 526 kts 127°
2026-05-08 01:31 44.64249 -88.36140 36921 ft 526 kts 127°
2026-05-08 01:32 44.59906 -88.27863 36885 ft 526 kts 128°
2026-05-08 01:32 44.55729 -88.19450 36907 ft 527 kts 120°
2026-05-08 01:32 44.54155 -88.14813 36907 ft 527 kts 109°
2026-05-08 01:33 44.52954 -88.10031 36935 ft 527 kts 108°
2026-05-08 01:33 44.50607 -88.00271 36933 ft 528 kts 108°
2026-05-08 01:34 44.48224 -87.90526 36932 ft 529 kts 109°
2026-05-08 01:34 44.45782 -87.80817 36935 ft 529 kts 109°
2026-05-08 01:35 44.43311 -87.71127 36937 ft 529 kts 109°
2026-05-08 01:35 44.40829 -87.61441 36942 ft 529 kts 109°
2026-05-08 01:36 44.38347 -87.51772 36934 ft 528 kts 109°
2026-05-08 01:36 44.35857 -87.42107 36943 ft 528 kts 110°
2026-05-08 01:37 44.33359 -87.32450 36977 ft 529 kts 110°
2026-05-08 01:37 44.30846 -87.22779 36954 ft 530 kts 110°
2026-05-08 01:38 44.28319 -87.13087 36949 ft 531 kts 110°
2026-05-08 01:38 44.25782 -87.03399 36945 ft 532 kts 110°
2026-05-08 01:39 44.23250 -86.93772 36962 ft 532 kts 110°
2026-05-08 01:39 44.20691 -86.84080 36950 ft 533 kts 110°
2026-05-08 01:40 44.18121 -86.74384 36949 ft 534 kts 110°
2026-05-08 01:40 44.15538 -86.64681 36944 ft 534 kts 110°
2026-05-08 01:41 44.12944 -86.54976 36949 ft 535 kts 110°
2026-05-08 01:41 44.10338 -86.45268 36939 ft 536 kts 110°
2026-05-08 01:42 44.07722 -86.35556 36946 ft 536 kts 111°
2026-05-08 01:42 44.05111 -86.25907 36944 ft 536 kts 111°
2026-05-08 01:43 44.02477 -86.16210 36950 ft 536 kts 110°
2026-05-08 01:43 43.99840 -86.06537 36946 ft 535 kts 111°
2026-05-08 01:44 43.97199 -85.96891 36952 ft 534 kts 111°
2026-05-08 01:44 43.94554 -85.87270 36934 ft 533 kts 111°
2026-05-08 01:45 43.91903 -85.77664 36947 ft 533 kts 111°
2026-05-08 01:45 43.89238 -85.68043 36949 ft 534 kts 111°
2026-05-08 01:46 43.86566 -85.58436 36939 ft 534 kts 111°
2026-05-08 01:46 43.83884 -85.48831 36937 ft 534 kts 111°
2026-05-08 01:47 43.81195 -85.39240 36950 ft 534 kts 111°
2026-05-08 01:47 43.78501 -85.29667 36945 ft 533 kts 111°
2026-05-08 01:48 43.74452 -85.15347 36949 ft 532 kts 111°
2026-05-08 01:48 43.71763 -85.05887 36922 ft 532 kts 111°
2026-05-08 01:49 43.69050 -84.96378 36935 ft 532 kts 112°
2026-05-08 01:49 43.66329 -84.86874 36937 ft 532 kts 112°
2026-05-08 01:50 43.63598 -84.77372 36935 ft 532 kts 112°
2026-05-08 01:50 43.60856 -84.67875 36935 ft 533 kts 112°
2026-05-08 01:51 43.58107 -84.58385 36949 ft 533 kts 112°
2026-05-08 01:51 43.55355 -84.48902 36946 ft 533 kts 112°
2026-05-08 01:52 43.52595 -84.39417 36950 ft 533 kts 112°
2026-05-08 01:52 43.49825 -84.29942 36946 ft 533 kts 112°
2026-05-08 01:53 43.47046 -84.20476 36942 ft 533 kts 113°
2026-05-08 01:53 43.44254 -84.11006 36943 ft 534 kts 113°
2026-05-08 01:54 43.41450 -84.01530 36948 ft 535 kts 113°
2026-05-08 01:54 43.38635 -83.92052 36944 ft 535 kts 113°
2026-05-08 01:55 43.35833 -83.82655 36951 ft 535 kts 113°
2026-05-08 01:55 43.33073 -83.73161 36934 ft 536 kts 106°
2026-05-08 01:56 43.32455 -83.68137 36951 ft 534 kts 89°
2026-05-08 01:56 43.32740 -83.63078 36960 ft 530 kts 78°
2026-05-08 01:56 43.33963 -83.53080 36943 ft 531 kts 77°
2026-05-08 01:57 43.35176 -83.43067 36939 ft 531 kts 78°
2026-05-08 01:57 43.36289 -83.33020 36940 ft 532 kts 79°
2026-05-08 01:58 43.37361 -83.22960 36939 ft 532 kts 79°
2026-05-08 01:58 43.38428 -83.12901 36935 ft 532 kts 79°
2026-05-08 01:59 43.39488 -83.02864 36780 ft 524 kts 79°
2026-05-08 01:59 43.40006 -82.97927 36235 ft 520 kts 79°
2026-05-08 01:59 43.40516 -82.93059 35518 ft 523 kts 79°
2026-05-08 02:00 43.41036 -82.88094 34726 ft 528 kts 79°
2026-05-08 02:00 43.41558 -82.83079 33975 ft 530 kts 79°
2026-05-08 02:00 43.42078 -82.78048 33097 ft 532 kts 79°
2026-05-08 02:00 43.42594 -82.73008 32248 ft 532 kts 79°
2026-05-08 02:01 43.43106 -82.67981 31504 ft 529 kts 79°
2026-05-08 02:01 43.43610 -82.62992 31242 ft 526 kts 79°
2026-05-08 02:01 43.44112 -82.58012 31126 ft 527 kts 79°
2026-05-08 02:01 43.44616 -82.53002 31012 ft 529 kts 79°
2026-05-08 02:02 43.45616 -82.42958 30952 ft 529 kts 79°
2026-05-08 02:02 43.46607 -82.32905 30949 ft 531 kts 79°
2026-05-08 02:03 43.47294 -82.22759 30955 ft 534 kts 87°
2026-05-08 02:03 43.47204 -82.12514 30965 ft 535 kts 90°
2026-05-08 02:04 43.47044 -82.02266 30957 ft 536 kts 89°
2026-05-08 02:04 43.46998 -81.92018 30959 ft 535 kts 88°
2026-05-08 02:05 43.46993 -81.81774 30958 ft 535 kts 88°
2026-05-08 02:05 43.46973 -81.71601 30959 ft 535 kts 88°
2026-05-08 02:06 43.46933 -81.61297 30959 ft 534 kts 88°
2026-05-08 02:06 43.46890 -81.51162 30956 ft 533 kts 88°
2026-05-08 02:07 43.46843 -81.40973 30955 ft 531 kts 88°
2026-05-08 02:07 43.46815 -81.35958 30753 ft 517 kts 89°
2026-05-08 02:07 43.46784 -81.31034 30123 ft 513 kts 88°
2026-05-08 02:08 43.46751 -81.26132 29201 ft 513 kts 89°
2026-05-08 02:08 43.46717 -81.21225 28370 ft 510 kts 89°
2026-05-08 02:08 43.46679 -81.16364 27700 ft 504 kts 89°
2026-05-08 02:08 43.46640 -81.11583 27105 ft 496 kts 89°
2026-05-08 02:09 43.46599 -81.06863 26512 ft 489 kts 89°
2026-05-08 02:09 43.46558 -81.02212 25898 ft 483 kts 89°
2026-05-08 02:09 43.46515 -80.97613 25296 ft 478 kts 89°
2026-05-08 02:09 43.46471 -80.93063 24712 ft 472 kts 89°
2026-05-08 02:10 43.46425 -80.88572 24174 ft 466 kts 89°
2026-05-08 02:10 43.46379 -80.84149 23690 ft 457 kts 89°
2026-05-08 02:10 43.46331 -80.79845 22935 ft 443 kts 89°
2026-05-08 02:10 43.46299 -80.77055 22205 ft 440 kts 89°
2026-05-08 02:11 43.46235 -80.71456 20703 ft 435 kts 89°
2026-05-08 02:11 43.46187 -80.67373 19726 ft 429 kts 89°
2026-05-08 02:11 43.46153 -80.64619 19109 ft 425 kts 89°
2026-05-08 02:11 43.46102 -80.60576 18193 ft 419 kts 89°
2026-05-08 02:12 43.46032 -80.55320 16830 ft 411 kts 90°
2026-05-08 02:12 43.45979 -80.51415 15855 ft 406 kts 90°
2026-05-08 02:12 43.45942 -80.48790 15215 ft 403 kts 90°
2026-05-08 02:12 43.45889 -80.44960 14297 ft 398 kts 90°
2026-05-08 02:13 43.45836 -80.41177 13531 ft 390 kts 90°
2026-05-08 02:13 43.45904 -80.37516 12895 ft 376 kts 78°
2026-05-08 02:13 43.46696 -80.34208 12877 ft 356 kts 65°
2026-05-08 02:13 43.47611 -80.31069 12703 ft 350 kts 65°
2026-05-08 02:14 43.48489 -80.28020 12554 ft 345 kts 65°
2026-05-08 02:14 43.49356 -80.24951 12421 ft 341 kts 66°
2026-05-08 02:14 43.50194 -80.21949 12258 ft 331 kts 66°
2026-05-08 02:14 43.51006 -80.19025 12093 ft 323 kts 66°
2026-05-08 02:15 43.51789 -80.16140 11764 ft 321 kts 67°
2026-05-08 02:15 43.52557 -80.13271 11442 ft 318 kts 67°
2026-05-08 02:15 43.53315 -80.10423 11129 ft 316 kts 67°
2026-05-08 02:15 43.54068 -80.07593 10808 ft 314 kts 67°
2026-05-08 02:16 43.54818 -80.04773 10479 ft 312 kts 67°
2026-05-08 02:16 43.55562 -80.01973 10190 ft 309 kts 67°
2026-05-08 02:16 43.56289 -79.99227 10055 ft 301 kts 67°
2026-05-08 02:16 43.57002 -79.96541 9819 ft 297 kts 67°
2026-05-08 02:17 43.57711 -79.93871 9501 ft 295 kts 67°
2026-05-08 02:17 43.58414 -79.91225 9212 ft 293 kts 68°
2026-05-08 02:17 43.59124 -79.88606 8924 ft 290 kts 63°
2026-05-08 02:17 43.60297 -79.86428 8650 ft 279 kts 37°
2026-05-08 02:18 43.61810 -79.84851 8385 ft 275 kts 30°
2026-05-08 02:18 43.63384 -79.83369 8264 ft 266 kts 30°
2026-05-08 02:18 43.64889 -79.81944 8135 ft 259 kts 30°
2026-05-08 02:18 43.66326 -79.80567 8028 ft 251 kts 30°
2026-05-08 02:19 43.67741 -79.79201 7833 ft 248 kts 31°
2026-05-08 02:19 43.69162 -79.77827 7638 ft 251 kts 31°
2026-05-08 02:19 43.70600 -79.76431 7404 ft 254 kts 31°
2026-05-08 02:19 43.72044 -79.75025 7158 ft 254 kts 31°
2026-05-08 02:20 43.73484 -79.73621 6914 ft 252 kts 31°
2026-05-08 02:20 43.74908 -79.72223 6672 ft 251 kts 33°
2026-05-08 02:20 43.76185 -79.70572 6437 ft 251 kts 43°
2026-05-08 02:20 43.77371 -79.68801 6193 ft 250 kts 44°
2026-05-08 02:21 43.78526 -79.67069 6032 ft 245 kts 44°
2026-05-08 02:21 43.79665 -79.65370 5995 ft 238 kts 44°
2026-05-08 02:21 43.80793 -79.63706 5997 ft 236 kts 44°
2026-05-08 02:21 43.81920 -79.62054 6002 ft 237 kts 43°
2026-05-08 02:22 43.83023 -79.60443 5954 ft 241 kts 43°
2026-05-08 02:22 43.84191 -79.58740 5741 ft 244 kts 44°
2026-05-08 02:22 43.85353 -79.57043 5520 ft 242 kts 44°
2026-05-08 02:22 43.86505 -79.55362 5274 ft 240 kts 44°
2026-05-08 02:23 43.87651 -79.53688 5024 ft 240 kts 44°
2026-05-08 02:23 43.88639 -79.51860 4819 ft 235 kts 69°
2026-05-08 02:23 43.88695 -79.49669 4529 ft 229 kts 110°
2026-05-08 02:23 43.87830 -79.47874 4153 ft 224 kts 139°
2026-05-08 02:24 43.86533 -79.46807 3782 ft 218 kts 163°
2026-05-08 02:24 43.85054 -79.46562 3558 ft 213 kts 187°
2026-05-08 02:24 43.83614 -79.46820 3371 ft 204 kts 189°
2026-05-08 02:24 43.82219 -79.47084 3198 ft 202 kts 189°
2026-05-08 02:25 43.80829 -79.47409 3049 ft 203 kts 200°
2026-05-08 02:25 43.79733 -79.48545 3030 ft 199 kts 231°
2026-05-08 02:25 43.78784 -79.49973 2792 ft 205 kts 225°
2026-05-08 02:25 43.77789 -79.51332 2576 ft 196 kts 226°
2026-05-08 02:26 43.76868 -79.52649 2382 ft 185 kts 227°
2026-05-08 02:26 43.75987 -79.53930 2241 ft 184 kts 227°
2026-05-08 02:26 43.75114 -79.55201 2103 ft 185 kts 227°
2026-05-08 02:26 43.74245 -79.56466 1955 ft 173 kts 227°
2026-05-08 02:27 43.73461 -79.57608 1826 ft 154 kts 229°
2026-05-08 02:27 43.72743 -79.58657 1603 ft 147 kts 230°
2026-05-08 02:27 43.72047 -79.59692 1317 ft 149 kts 228°
2026-05-08 02:27 43.71347 -79.60733 1150 ft 146 kts 226°
2026-05-08 02:28 43.70640 -79.61739 955 ft 146 kts 226°
2026-05-08 02:28 43.69939 -79.62742 777 ft 144 kts 225°
2026-05-08 02:28 43.69248 -79.63747 587 ft 140 kts 225°
2026-05-08 02:28 43.68657 -79.64604 572 ft 97 kts 226°
2026-05-08 02:29 43.68372 -79.65010 576 ft 33 kts 233°
2026-05-08 02:29 43.68221 -79.65236 575 ft 32 kts 226°
2026-05-08 02:29 43.68067 -79.65462 572 ft 32 kts 227°
2026-05-08 02:29 43.67930 -79.65680 577 ft 23 kts 236°
2026-05-08 02:30 43.67878 -79.65873 575 ft 19 kts 255°
2026-05-08 02:30 43.67934 -79.65976 571 ft 17 kts 36°
2026-05-08 02:30 43.68015 -79.65864 571 ft 16 kts 46°
2026-05-08 02:30 43.68092 -79.65757 571 ft 10 kts 28°
2026-05-08 02:31 43.68153 -79.65789 570 ft 10 kts 323°
2026-05-08 02:31 43.68205 -79.65844 572 ft 9 kts 323°
2026-05-08 02:31 43.68237 -79.65869 575 ft 2 kts
2026-05-08 02:31 43.68254 -79.65839 571 ft 8 kts 69°
2026-05-08 02:32 43.68232 -79.65772 571 ft 6 kts 142°
2026-05-08 02:32 43.68217 -79.65753 568 ft 0 kts 136°